This is the latest recevied weather packets stored in our database for station/object K0SDS. If no packets are shown the sender has not sent any weather packets the latest 1 day(s).
| Time | Temp. | Humidity | Pressure | Rain* | Wind** | Luminosity | Snow |
|---|---|---|---|---|---|---|---|
| 1778119875 | 8.33° C | 72% | 1017 hPa | 0 mm | - | 0 W/m² | - |
| 1778118968 | 8.89° C | 66% | 1017 hPa | 0 mm | - | 0 W/m² | - |
| 1778118665 | 8.89° C | 67% | 1016.9 hPa | 0 mm | - | 0 W/m² | - |
| 1778118057 | 9.44° C | 68% | 1016.5 hPa | 0 mm | - | 0 W/m² | - |
| 1778117754 | 10° C | 63% | 1016.7 hPa | 0 mm | - | 0 W/m² | - |
| 1778117148 | 10.56° C | 61% | 1016.8 hPa | 0 mm | - | 0 W/m² | - |
| 1778116844 | 11.11° C | 61% | 1016.8 hPa | 0 mm | - | 0 W/m² | - |
| 1778116542 | 11.11° C | 59% | 1016.9 hPa | 0 mm | - | 3 W/m² | - |
| 1778115932 | 12.78° C | 57% | 1016.8 hPa | 0 mm | - | 7 W/m² | - |
| 1778115624 | 12.78° C | 59% | 1016.8 hPa | 0 mm | - | 10 W/m² | - |
| 1778115321 | 13.89° C | 51% | 1016.9 hPa | 0 mm | - | 13 W/m² | - |
| 1778114412 | 15° C | 37% | 1016.7 hPa | 0 mm | - | 23 W/m² | - |
| 1778114107 | 15.56° C | 38% | 1016.7 hPa | 0 mm | - | 25 W/m² | - |
| 1778113499 | 16.67° C | 37% | 1016.7 hPa | 0 mm | - | 54 W/m² | - |
| 1778111673 | 16.67° C | 38% | 1016.7 hPa | 0 mm | - | 131 W/m² | - |
| 1778111066 | 16.67° C | 36% | 1016.8 hPa | 0 mm | - | 131 W/m² | - |
| 1778110156 | 16.11° C | 34% | 1016.7 hPa | 0 mm | - | 161 W/m² | - |
| 1778107730 | 16.11° C | 39% | 1016.8 hPa | 0 mm | - | 266 W/m² | - |
| 1778104691 | 17.78° C | 35% | 1017.1 hPa | 0 mm | - | 353 W/m² | - |
| 1778103175 | 16.67° C | 34% | 1017.3 hPa | 0 mm | - | 373 W/m² | - |
| 1778102568 | 17.22° C | 39% | 1017.6 hPa | 0 mm | - | 494 W/m² | - |
| 1778101354 | 17.78° C | 37% | 1017.7 hPa | 0 mm | - | 525 W/m² | - |
| 1778100141 | 16.67° C | 35% | 1017.9 hPa | 0 mm | - | 575 W/m² | - |
| 1778099536 | 16.67° C | 37% | 1018.2 hPa | 0 mm | - | 580 W/m² | - |
| 1778098317 | 16.11° C | 40% | 1018.7 hPa | 0 mm | - | 580 W/m² | - |
* Rain latest hour (hover to see other rain measurements)
** Current wind speed in m/s (hover to see current wind gust speed)